Weather History for KLVM - February, 2014

Change the Weather History Date:

Saturday, February 15, 2014

  Actual Average Record
Temperature  
Mean Temperature 41 °F 29 °F  
Max Temperature 49 °F 40 °F 58 °F (1951)
Min Temperature 33 °F 18 °F -16 °F (1956)
Degree Days  
Heating Degree Days 24 36  
Month to date heating degree days 754 553  
Since 1 July heating degree days 4699 4894  
Cooling Degree Days 0 0  
Month to date cooling degree days 0  
Year to date cooling degree days 0  
Moisture  
Dew Point 24 °F    
Average Humidity 51    
Maximum Humidity 70    
Minimum Humidity 31    
Precipitation  
Precipitation 0.01 in 0.02 in 0.27 in (2015)
Month to date precipitation 0.12 0.25  
Year to date precipitation 0.53 0.74  
Sea Level Pressure  
Sea Level Pressure 29.84 in    
Wind  
Wind Speed 16 mph (SSW)    
Max Wind Speed 38 mph    
Max Gust Speed 50 mph    
Visibility 10 miles    
Events Rain , Snow    
T = Trace of Precipitation, MM = Missing Value Source: NWS Daily Summary

Daily Weather History Graph

Daily Weather History Graph

Search for Another Location

Airport or City:

Trip Planner

Search our weather history database for the weather conditions in past years. The results will help you decide how hot, cold, wet, or windy it might be!

Date:

Astronomy

Feb. 15, 2014 Rise Set
Actual Time 7:23 AM MST 5:48 PM MST
Civil Twilight 6:53 AM MST 6:19 PM MST
Nautical Twilight 6:18 AM MST 6:54 PM MST
Astronomical Twilight 5:44 AM MST 7:28 PM MST
Moon 6:57 PM MST (2/15) 7:19 AM MST (2/15)
Length of Visible Light 11h 26m
Length of Day
10h 24m
Waxing Gibbous, 99% of the Moon is Illuminated
Feb 15
Waxing Gibbous
Feb 22
Last Quarter
Mar 1
New
Mar 8
First Quarter
Mar 16
Full

Hourly Weather History & Observations

Time (MST) Temp. Windchill Dew Point Humidity Pressure Visibility Wind Dir Wind Speed Gust Speed Precip Events Conditions
12:53 AM 39.0 °F 29.3 °F 26.1 °F 60% 29.83 in 10.0 mi West 19.6 mph - N/A   Overcast
1:53 AM 37.9 °F 26.6 °F 25.0 °F 60% 29.83 in 10.0 mi WSW 25.3 mph - N/A   Overcast
2:53 AM 37.0 °F 25.6 °F 23.0 °F 57% 29.86 in 10.0 mi WSW 24.2 mph - N/A   Clear
3:53 AM 37.0 °F 28.1 °F 21.0 °F 52% 29.90 in 10.0 mi WSW 15.0 mph - N/A   Overcast
4:53 AM 37.0 °F 31.6 °F 19.9 °F 50% 29.94 in 10.0 mi NW 6.9 mph - N/A   Overcast
5:20 AM 37.0 °F 28.1 °F 19.0 °F 48% 29.91 in 10.0 mi WSW 15.0 mph - N/A   Scattered Clouds
5:53 AM 37.0 °F 27.4 °F 19.0 °F 48% 29.95 in 10.0 mi WSW 17.3 mph 25.3 mph N/A   Clear
6:53 AM 35.1 °F 23.3 °F 19.0 °F 52% 29.93 in 10.0 mi WSW 23.0 mph - N/A   Clear
7:53 AM 35.1 °F 23.5 °F 19.0 °F 52% 29.98 in 10.0 mi WSW 21.9 mph - N/A   Clear
8:53 AM 36.0 °F 28.0 °F 21.0 °F 55% 30.02 in 10.0 mi WNW 11.5 mph - N/A   Clear
9:53 AM 39.0 °F 31.4 °F 21.0 °F 49% 30.01 in 10.0 mi West 12.7 mph - N/A   Clear
10:53 AM 42.1 °F 35.7 °F 21.9 °F 45% 29.99 in 10.0 mi West 11.5 mph - N/A   Clear
11:53 AM 44.1 °F 36.8 °F 21.9 °F 42% 29.95 in 10.0 mi West 16.1 mph - N/A   Clear
12:53 PM 46.0 °F 39.3 °F 19.0 °F 34% 29.90 in 10.0 mi WSW 16.1 mph - N/A   Clear
1:53 PM 46.9 °F - 21.9 °F 37% 29.86 in 10.0 mi WSW 13.8 mph - N/A   Clear
2:53 PM 48.0 °F - 19.9 °F 33% 29.82 in 10.0 mi ESE 11.5 mph - N/A   Clear
3:53 PM 44.1 °F 38.6 °F 21.9 °F 42% 29.83 in 10.0 mi East 10.4 mph - N/A   Overcast
4:53 PM 39.0 °F 31.4 °F 24.1 °F 55% 29.84 in 10.0 mi East 12.7 mph - 0.00 in Rain Light Rain
5:08 PM 37.9 °F 30.5 °F 27.0 °F 65% 29.80 in 10.0 mi ESE 11.5 mph - 0.00 in Rain Light Rain
5:40 PM 36.0 °F 27.5 °F 28.0 °F 73% 29.80 in 9.0 mi ESE 12.7 mph - 0.01 in Snow Light Snow
5:53 PM 37.0 °F 28.9 °F 26.1 °F 65% 29.84 in 7.0 mi East 12.7 mph - 0.01 in Snow Light Snow
6:01 PM 36.0 °F 27.1 °F 28.0 °F 73% 29.79 in 5.0 mi East 13.8 mph - 0.00 in Snow Light Snow
6:23 PM 35.1 °F 26.4 °F 27.0 °F 72% 29.77 in 9.0 mi ESE 12.7 mph - 0.00 in Snow Light Snow
6:53 PM 35.1 °F 26.9 °F 28.0 °F 76% 29.83 in 10.0 mi East 11.5 mph - 0.00 in   Overcast
7:53 PM 35.1 °F 27.9 °F 27.0 °F 72% 29.80 in 10.0 mi East 9.2 mph - N/A   Overcast
8:53 PM 35.1 °F 29.3 °F 27.0 °F 72% 29.76 in 10.0 mi ENE 6.9 mph - N/A   Overcast
9:53 PM 35.1 °F 28.6 °F 27.0 °F 72% 29.73 in 10.0 mi East 8.1 mph - N/A   Overcast
10:53 PM 46.0 °F 38.3 °F 30.0 °F 54% 29.62 in 10.0 mi SW 20.7 mph 31.1 mph N/A   Overcast
11:04 PM 48.0 °F - 30.0 °F 50% 29.61 in 10.0 mi SW 28.8 mph 39.1 mph N/A   Overcast
11:53 PM 48.9 °F - 30.0 °F 48% 29.55 in 10.0 mi SSW 34.5 mph 49.5 mph N/A   Scattered Clouds